Location: Dreilärchen
(47.9312°N, 8.6113°E)
Time: 19:40:56
(UTC+00:00)

Thor Agena Rocket - Pass Details

Date: 26 May 2022
Orbit: 759 x 807 km, 99.0° (Epoch: 02 July)

Event Time Altitude Azimuth Distance (km) Brightness Sun altitude
Rises 00:05:57 0° 19° (NNE) 3,323 8.3 -20.3°
Reaches altitude 10° 00:08:23 10° 26° (NNE) 2,392 7.2 -20.2°
Maximum altitude 00:13:28 46° 99° (E) 1,070 4.2 -20.0°
Enters shadow 00:15:38 30° 153° (SSE) 1,402 4.4 -20.0°
